Regional Weather Roundup
Issued by NWS

Home | Current Version | Previous Version | Text Only | Print | Product List | Glossary Off
Versions: 1 2 3 4 5 6 7 8 9 10 11 12 13 14 15 16 17 18 19 20 21 22 23 24 25 26 27 28 29 30 31 32 33 34 35 36 37 38 39 40 41 42 43 44 45 46 47 48 49 50

000
ASUS45 KCYS 200110
RWRWY

WYOMING REGIONAL WEATHER ROUNDUP
NATIONAL WEATHER SERVICE CHEYENNE WY
700 PM MDT THU APR 19 2018

NOTE:  "FAIR" INDICATES FEW OR NO CLOUDS BELOW 12,000 FEET
WITH NO SIGNIFICANT WEATHER AND/OR OBSTRUCTIONS TO VISIBILITY.

WYZ001-200200-
YELLOWSTONE NATIONAL PARK

CITY           SKY/WX    TMP DP  RH WIND       PRES   REMARKS
LK YELLOWSTONE   N/A     41  17  38 VRB5      30.05S
W YELLOWSTONE  NOT AVBL

$$
WYZ002>013-054>058-071-098>099-200200-
NORTHERN WYOMING

CITY           SKY/WX    TMP DP  RH WIND       PRES   REMARKS
JACKSON        PTSUNNY   52  20  28 NE12      29.91F
CODY           FAIR      52  22  30 N8        30.02F
GREYBULL       FAIR      56  30  37 NW7       29.97F
WORLAND        FAIR      54  29  38 N9        29.96S
SHERIDAN       FAIR      58  27  30 SE14      30.00S
BUFFALO        FAIR      56  26  31 E10       30.04S
GILLETTE       FAIR      55  31  39 SE16G24   30.04F
HULETT         FAIR      54  28  37 SE10      30.11F
NEWCASTLE      FAIR      52  27  37 SE18G30   30.10S

$$
WYZ014>020-022>026-101>103-200200-
CENTRAL WYOMING

CITY           SKY/WX    TMP DP  RH WIND       PRES   REMARKS
BIG PINEY      PTSUNNY   54   0  11 S20G28    29.90S
PINEDALE       FAIR      52   5  15 SE18G24   29.93S
DUBOIS         FAIR      45  16  31 SE16      29.99S
LANDER         PTSUNNY   52  22  30 NW9       29.94F
RIVERTON       FAIR      52  25  35 NW12      29.96S
CASPER         FAIR      58  22  24 E18G26    29.92S
DOUGLAS        FAIR      56  26  31 SE23G30   29.99F

$$
WYZ021-027>030-104>119-200200-
SOUTHERN WYOMING

CITY           SKY/WX    TMP DP  RH WIND       PRES   REMARKS
EVANSTON       FAIR      54   5  14 S17       29.84S
KEMMERER       FAIR      54  -2  10 SE12G20   29.87F
FORT BRIDGER   FAIR      56  -1   9 CALM      29.88F
ROCK SPRINGS   FAIR      53   5  14 NE8       29.86F
DIXON          FAIR      60  15  17 CALM      29.85F
RAWLINS        FAIR      57  11  16 NW3       29.90S
SARATOGA       FAIR      54  14  20 SE3       29.90F
LARAMIE        FAIR      51  14  22 SE28G43   29.96F
CHEYENNE       FAIR      53  22  29 SE25G33   30.03S
TORRINGTON     FAIR      57  27  31 SE22G33   30.03F
PINE BLUFFS    FAIR      54  23  30 SE26G36   30.04F

$$



USA.gov is the U.S. government's official web portal to all federal, state and local government web resources and services.